Time,TemperatureF,DewpointF,PressureIn,WindDirection,WindDirectionDegrees,WindSpeedMPH,WindSpeedGustMPH,Humidity,HourlyPrecipIn,Conditions,Clouds,dailyrainin,SoftwareType,DateUTC
2013-07-06 00:04:00,83.4,57.2,29.91,SW,231,3.5,3.5,41,0.00,CLR,,0.00,WeatherDisplay:10.37,2013-07-06 05:04:00,
2013-07-06 00:09:00,83.2,57.1,29.91,SE,131,2.3,2.3,41,0.00,CLR,,0.00,WeatherDisplay:10.37,2013-07-06 05:09:00,
2013-07-06 00:14:00,83.0,57.5,29.92,SSW,212,2.3,2.3,42,0.00,CLR,,0.00,WeatherDisplay:10.37,2013-07-06 05:14:00,
2013-07-06 00:19:00,82.8,57.4,29.92,SE,124,4.0,4.0,42,0.00,CLR,,0.00,WeatherDisplay:10.37,2013-07-06 05:19:00,
2013-07-06 00:24:00,82.7,57.3,29.92,SE,136,3.5,3.5,42,0.00,CLR,,0.00,WeatherDisplay:10.37,2013-07-06 05:24:00,
2013-07-06 00:29:00,82.5,57.7,29.92,SE,138,2.3,2.3,43,0.00,CLR,,0.00,WeatherDisplay:10.37,2013-07-06 05:29:00,
2013-07-06 00:34:00,82.4,57.7,29.92,SE,132,3.5,3.5,43,0.00,CLR,,0.00,WeatherDisplay:10.37,2013-07-06 05:34:00,
2013-07-06 00:39:00,82.2,57.5,29.92,SSE,167,2.3,2.3,43,0.00,CLR,,0.00,WeatherDisplay:10.37,2013-07-06 05:39:00,
2013-07-06 00:44:00,82.2,57.5,29.92,SSE,154,3.5,3.5,43,0.00,CLR,,0.00,WeatherDisplay:10.37,2013-07-06 05:44:00,
2013-07-06 00:49:00,82.1,58.0,29.92,South,172,2.3,2.3,44,0.00,CLR,,0.00,WeatherDisplay:10.37,2013-07-06 05:49:00,
2013-07-06 00:54:00,82.0,57.9,29.92,ESE,120,2.0,2.0,44,0.00,CLR,,0.00,WeatherDisplay:10.37,2013-07-06 05:54:00,
2013-07-06 00:59:00,81.9,57.8,29.92,SE,137,4.6,4.6,44,0.00,CLR,,0.00,WeatherDisplay:10.37,2013-07-06 05:59:00,
2013-07-06 01:04:00,81.7,57.7,29.92,SSW,213,0.0,0.0,44,0.00,CLR,,0.00,WeatherDisplay:10.37,2013-07-06 06:04:00,
2013-07-06 01:09:00,81.5,58.1,29.93,South,189,2.3,2.3,45,0.00,CLR,,0.00,WeatherDisplay:10.37,2013-07-06 06:09:00,
2013-07-06 01:14:00,81.3,57.9,29.93,East,88,3.5,3.5,45,0.00,CLR,,0.00,WeatherDisplay:10.37,2013-07-06 06:14:00,
2013-07-06 01:19:00,81.3,57.9,29.93,SE,125,3.5,3.5,45,0.00,CLR,,0.00,WeatherDisplay:10.37,2013-07-06 06:19:00,
2013-07-06 01:24:00,81.1,58.4,29.92,East,101,3.5,3.5,46,0.00,CLR,,0.00,WeatherDisplay:10.37,2013-07-06 06:24:00,
2013-07-06 01:29:00,81.0,58.3,29.92,SSE,153,4.6,4.6,46,0.00,CLR,,0.00,WeatherDisplay:10.37,2013-07-06 06:29:00,
2013-07-06 01:34:00,80.8,58.7,29.92,SW,215,1.2,1.2,47,0.00,CLR,,0.00,WeatherDisplay:10.37,2013-07-06 06:34:00,
2013-07-06 01:39:00,80.6,58.5,29.92,SE,141,3.5,3.5,47,0.00,CLR,,0.00,WeatherDisplay:10.37,2013-07-06 06:39:00,
2013-07-06 01:44:00,80.4,58.9,29.92,SSW,200,3.5,3.5,48,0.00,CLR,,0.00,WeatherDisplay:10.37,2013-07-06 06:44:00,
2013-07-06 01:49:00,80.2,58.7,29.92,SSE,148,0.0,0.0,48,0.00,CLR,,0.00,WeatherDisplay:10.37,2013-07-06 06:49:00,
2013-07-06 01:54:00,80.0,59.1,29.92,SE,137,1.2,1.2,49,0.00,CLR,,0.00,WeatherDisplay:10.37,2013-07-06 06:54:00,
2013-07-06 01:59:00,79.8,58.9,29.92,SSE,160,1.2,1.2,49,0.00,CLR,,0.00,WeatherDisplay:10.37,2013-07-06 06:59:00,
2013-07-06 02:04:00,79.6,58.8,29.92,SW,232,1.2,0.0,49,0.00,CLR,,0.00,WeatherDisplay:10.37,2013-07-06 07:04:00,
2013-07-06 02:09:00,79.5,59.2,29.92,SSE,166,1.2,0.0,50,0.00,CLR,,0.00,WeatherDisplay:10.37,2013-07-06 07:09:00,
2013-07-06 02:14:00,79.2,59.0,29.92,SSW,201,2.3,2.3,50,0.00,CLR,,0.00,WeatherDisplay:10.37,2013-07-06 07:14:00,
2013-07-06 02:19:00,79.1,58.9,29.93,SW,217,2.3,2.3,50,0.00,CLR,,0.00,WeatherDisplay:10.37,2013-07-06 07:19:00,
2013-07-06 02:24:00,78.9,59.2,29.93,SE,145,0.0,0.0,51,0.00,CLR,,0.00,WeatherDisplay:10.37,2013-07-06 07:24:00,
2013-07-06 02:29:00,78.6,59.0,29.93,SSW,194,0.0,0.0,51,0.00,CLR,,0.00,WeatherDisplay:10.37,2013-07-06 07:29:00,
2013-07-06 02:34:00,78.4,59.3,29.93,SSE,148,1.2,1.2,52,0.00,CLR,,0.00,WeatherDisplay:10.37,2013-07-06 07:34:00,
2013-07-06 02:39:00,78.2,59.1,29.93,ESE,108,1.2,1.2,52,0.00,CLR,,0.00,WeatherDisplay:10.37,2013-07-06 07:39:00,
2013-07-06 02:44:00,78.0,59.5,29.92,SSE,160,0.0,0.0,53,0.00,CLR,,0.00,WeatherDisplay:10.37,2013-07-06 07:44:00,
2013-07-06 02:49:00,77.9,59.4,29.93,SE,135,1.2,0.0,53,0.00,CLR,,0.00,WeatherDisplay:10.37,2013-07-06 07:49:00,
2013-07-06 02:54:00,77.7,59.7,29.92,SSE,159,0.0,0.0,54,0.00,CLR,,0.00,WeatherDisplay:10.37,2013-07-06 07:54:00,
2013-07-06 02:59:00,77.5,59.5,29.92,SW,215,2.3,2.3,54,0.00,CLR,,0.00,WeatherDisplay:10.37,2013-07-06 07:59:00,
2013-07-06 03:04:00,77.3,59.9,29.92,SSW,195,0.0,0.0,55,0.00,CLR,,0.00,WeatherDisplay:10.37,2013-07-06 08:04:00,
2013-07-06 03:09:00,77.1,59.7,29.92,SSE,165,1.2,1.2,55,0.00,CLR,,0.00,WeatherDisplay:10.37,2013-07-06 08:09:00,
2013-07-06 03:14:00,77.0,60.1,29.92,SW,220,0.0,0.1,56,0.00,CLR,,0.00,WeatherDisplay:10.37,2013-07-06 08:14:00,
2013-07-06 03:19:00,76.9,60.0,29.92,SE,124,1.2,1.2,56,0.00,CLR,,0.00,WeatherDisplay:10.37,2013-07-06 08:19:00,
2013-07-06 03:24:00,76.8,59.9,29.92,SW,217,1.2,1.2,56,0.00,CLR,,0.00,WeatherDisplay:10.37,2013-07-06 08:24:00,
2013-07-06 03:29:00,76.8,59.9,29.92,SSE,162,1.2,0.0,56,0.00,CLR,,0.00,WeatherDisplay:10.37,2013-07-06 08:29:00,
2013-07-06 03:34:00,76.8,60.4,29.92,SE,142,2.3,2.3,57,0.00,CLR,,0.00,WeatherDisplay:10.37,2013-07-06 08:34:00,
2013-07-06 03:39:00,76.7,60.3,29.92,South,170,1.2,0.0,57,0.00,CLR,,0.00,WeatherDisplay:10.37,2013-07-06 08:39:00,
2013-07-06 03:44:00,76.6,60.2,29.92,South,172,0.0,0.0,57,0.00,CLR,,0.00,WeatherDisplay:10.37,2013-07-06 08:44:00,
2013-07-06 03:49:00,76.5,60.1,29.92,SSW,210,0.0,0.0,57,0.00,CLR,,0.00,WeatherDisplay:10.37,2013-07-06 08:49:00,
2013-07-06 03:54:00,76.4,60.5,29.92,SSW,207,1.2,0.0,58,0.00,CLR,,0.00,WeatherDisplay:10.37,2013-07-06 08:54:00,
2013-07-06 03:59:00,76.4,60.5,29.92,SSE,150,1.2,0.0,58,0.00,CLR,,0.00,WeatherDisplay:10.37,2013-07-06 08:59:00,
2013-07-06 04:04:00,76.2,60.3,29.92,SSE,148,0.0,0.0,58,0.00,CLR,,0.00,WeatherDisplay:10.37,2013-07-06 09:04:00,
2013-07-06 04:09:00,76.3,60.4,29.92,SE,145,1.2,1.2,58,0.00,CLR,,0.00,WeatherDisplay:10.37,2013-07-06 09:09:00,
2013-07-06 04:14:00,76.4,60.5,29.92,SSE,160,0.0,0.0,58,0.00,CLR,,0.00,WeatherDisplay:10.37,2013-07-06 09:14:00,
2013-07-06 04:19:00,76.3,60.4,29.92,SSW,194,0.0,0.0,58,0.00,CLR,,0.00,WeatherDisplay:10.37,2013-07-06 09:19:00,
2013-07-06 04:24:00,76.2,60.3,29.91,SE,131,1.2,1.2,58,0.00,CLR,,0.00,WeatherDisplay:10.37,2013-07-06 09:24:00,
2013-07-06 04:29:00,76.0,60.2,29.91,SE,145,0.0,0.0,58,0.00,CLR,,0.00,WeatherDisplay:10.37,2013-07-06 09:29:00,
2013-07-06 04:34:00,75.9,60.5,29.91,SE,132,1.2,0.0,59,0.00,CLR,,0.00,WeatherDisplay:10.37,2013-07-06 09:34:00,
2013-07-06 04:39:00,75.8,60.4,29.91,SW,219,2.3,2.3,59,0.00,CLR,,0.00,WeatherDisplay:10.37,2013-07-06 09:39:00,
2013-07-06 04:44:00,75.7,60.4,29.91,SW,215,1.2,0.0,59,0.00,CLR,,0.00,WeatherDisplay:10.37,2013-07-06 09:44:00,
2013-07-06 04:49:00,75.6,60.3,29.91,SSE,162,1.2,0.0,59,0.00,CLR,,0.00,WeatherDisplay:10.37,2013-07-06 09:49:00,
2013-07-06 04:54:00,75.5,60.2,29.91,SSE,162,0.0,0.0,59,0.00,CLR,,0.00,WeatherDisplay:10.37,2013-07-06 09:54:00,
2013-07-06 04:59:00,75.4,60.5,29.91,SSE,148,0.0,0.0,60,0.00,CLR,,0.00,WeatherDisplay:10.37,2013-07-06 09:59:00,
2013-07-06 05:04:00,75.1,60.3,29.91,SE,142,0.0,0.0,60,0.00,CLR,,0.00,WeatherDisplay:10.37,2013-07-06 10:04:00,
2013-07-06 05:09:00,74.8,60.4,29.91,SE,143,0.0,0.0,61,0.00,CLR,,0.00,WeatherDisplay:10.37,2013-07-06 10:09:00,
2013-07-06 05:14:00,74.6,60.3,29.91,SE,142,0.0,0.0,61,0.00,CLR,,0.00,WeatherDisplay:10.37,2013-07-06 10:14:00,
2013-07-06 05:19:00,74.4,60.5,29.91,SE,143,0.0,0.0,62,0.00,CLR,,0.00,WeatherDisplay:10.37,2013-07-06 10:19:00,
2013-07-06 05:24:00,74.3,60.4,29.91,ESE,103,0.0,0.0,62,0.00,CLR,,0.00,WeatherDisplay:10.37,2013-07-06 10:24:00,
2013-07-06 05:29:00,74.2,60.3,29.92,ESE,103,0.0,0.0,62,0.00,CLR,,0.00,WeatherDisplay:10.37,2013-07-06 10:29:00,
2013-07-06 05:34:00,74.0,60.6,29.92,SE,129,0.0,0.0,63,0.00,CLR,,0.00,WeatherDisplay:10.37,2013-07-06 10:34:00,
2013-07-06 05:39:00,74.0,61.0,29.92,SSE,156,1.2,1.2,64,0.00,CLR,,0.00,WeatherDisplay:10.37,2013-07-06 10:39:00,
2013-07-06 05:44:00,74.1,61.1,29.92,SSE,151,0.0,0.0,64,0.00,CLR,,0.00,WeatherDisplay:10.37,2013-07-06 10:44:00,
2013-07-06 05:49:00,74.1,61.1,29.92,SE,129,1.0,1.0,64,0.00,CLR,,0.00,WeatherDisplay:10.37,2013-07-06 10:49:00,
2013-07-06 05:54:00,74.0,61.0,29.92,SE,137,0.0,0.2,64,0.00,CLR,,0.00,WeatherDisplay:10.37,2013-07-06 10:54:00,
2013-07-06 05:59:00,73.9,61.4,29.92,SE,134,0.0,0.0,65,0.00,CLR,,0.00,WeatherDisplay:10.37,2013-07-06 10:59:00,
2013-07-06 06:04:00,73.9,61.4,29.92,South,169,1.2,1.2,65,0.00,CLR,,0.00,WeatherDisplay:10.37,2013-07-06 11:04:00,
2013-07-06 06:09:00,73.8,61.3,29.92,SSE,161,0.0,0.0,65,0.00,CLR,,0.00,WeatherDisplay:10.37,2013-07-06 11:09:00,
2013-07-06 06:14:00,73.6,61.1,29.92,SSE,160,0.0,0.0,65,0.00,CLR,,0.00,WeatherDisplay:10.37,2013-07-06 11:14:00,
2013-07-06 06:19:00,73.4,60.9,29.93,SSW,194,0.0,0.0,65,0.00,CLR,,0.00,WeatherDisplay:10.37,2013-07-06 11:19:00,
2013-07-06 06:24:00,73.2,61.2,29.92,SSW,194,0.0,0.0,66,0.00,CLR,,0.00,WeatherDisplay:10.37,2013-07-06 11:24:00,
2013-07-06 06:29:00,73.0,61.0,29.93,SSE,163,1.0,1.0,66,0.00,CLR,,0.00,WeatherDisplay:10.37,2013-07-06 11:29:00,
2013-07-06 06:34:00,73.0,61.0,29.93,SW,222,1.2,1.2,66,0.00,CLR,,0.00,WeatherDisplay:10.37,2013-07-06 11:34:00,
2013-07-06 06:39:00,72.9,60.9,29.92,SE,141,0.0,0.0,66,0.00,CLR,,0.00,WeatherDisplay:10.37,2013-07-06 11:39:00,
2013-07-06 06:44:00,73.0,61.0,29.93,SW,219,0.0,0.0,66,0.00,CLR,,0.00,WeatherDisplay:10.37,2013-07-06 11:44:00,
2013-07-06 06:49:00,73.2,61.2,29.93,SSW,210,0.0,0.0,66,0.00,CLR,,0.00,WeatherDisplay:10.37,2013-07-06 11:49:00,
2013-07-06 06:54:00,73.5,61.0,29.93,SSW,210,0.0,0.0,65,0.00,CLR,,0.00,WeatherDisplay:10.37,2013-07-06 11:54:00,
2013-07-06 06:59:00,73.8,61.3,29.93,SSW,210,0.0,0.0,65,0.00,CLR,,0.00,WeatherDisplay:10.37,2013-07-06 11:59:00,
2013-07-06 07:04:00,74.2,61.2,29.93,SE,136,1.2,0.0,64,0.00,CLR,,0.00,WeatherDisplay:10.37,2013-07-06 12:04:00,
2013-07-06 07:09:00,74.5,61.5,29.93,SE,136,0.0,0.0,64,0.00,CLR,,0.00,WeatherDisplay:10.37,2013-07-06 12:09:00,
2013-07-06 07:14:00,74.9,61.5,29.93,SE,135,0.0,0.0,63,0.00,CLR,,0.00,WeatherDisplay:10.37,2013-07-06 12:14:00,
2013-07-06 07:19:00,75.1,61.6,29.93,SSE,148,0.0,0.0,63,0.00,CLR,,0.00,WeatherDisplay:10.37,2013-07-06 12:19:00,
2013-07-06 07:24:00,75.3,61.8,29.93,SSE,148,0.0,0.0,63,0.00,CLR,,0.00,WeatherDisplay:10.37,2013-07-06 12:24:00,
2013-07-06 07:29:00,75.8,62.3,29.93,SE,145,1.0,0.0,63,0.00,CLR,,0.00,WeatherDisplay:10.37,2013-07-06 12:29:00,
2013-07-06 07:34:00,76.0,62.0,29.93,SSE,162,1.2,0.0,62,0.00,CLR,,0.00,WeatherDisplay:10.37,2013-07-06 12:34:00,
2013-07-06 07:39:00,76.3,62.3,29.93,SE,139,0.0,0.0,62,0.00,CLR,,0.00,WeatherDisplay:10.37,2013-07-06 12:39:00,
2013-07-06 07:44:00,76.4,62.9,29.93,NNW,338,0.0,0.0,63,0.00,CLR,,0.00,WeatherDisplay:10.37,2013-07-06 12:44:00,
2013-07-06 07:49:00,76.7,63.2,29.93,WSW,250,1.0,0.0,63,0.00,CLR,,0.00,WeatherDisplay:10.37,2013-07-06 12:49:00,
2013-07-06 07:54:00,77.0,63.0,29.93,SSE,159,2.3,2.3,62,0.00,CLR,,0.00,WeatherDisplay:10.37,2013-07-06 12:54:00,
2013-07-06 07:59:00,77.6,63.5,29.93,ESE,123,0.0,0.0,62,0.00,CLR,,0.00,WeatherDisplay:10.37,2013-07-06 12:59:00,
2013-07-06 08:04:00,77.9,63.4,29.94,SSE,156,2.3,2.3,61,0.00,CLR,,0.00,WeatherDisplay:10.37,2013-07-06 13:04:00,
2013-07-06 08:09:00,78.2,63.2,29.94,SSE,148,1.2,0.0,60,0.00,CLR,,0.00,WeatherDisplay:10.37,2013-07-06 13:09:00,
2013-07-06 08:15:00,78.7,63.6,29.94,SE,145,1.2,1.2,60,0.00,CLR,,0.00,WeatherDisplay:10.37,2013-07-06 13:15:00,
2013-07-06 08:20:00,79.0,63.9,29.94,ESE,117,0.0,0.0,60,0.00,CLR,,0.00,WeatherDisplay:10.37,2013-07-06 13:20:00,
2013-07-06 08:25:00,79.7,64.1,29.94,SW,224,0.0,0.0,59,0.00,CLR,,0.00,WeatherDisplay:10.37,2013-07-06 13:25:00,
2013-07-06 08:30:00,80.4,64.3,29.94,ESE,106,0.0,0.0,58,0.00,CLR,,0.00,WeatherDisplay:10.37,2013-07-06 13:30:00,
2013-07-06 08:35:00,81.0,64.8,29.94,SE,129,0.0,0.0,58,0.00,CLR,,0.00,WeatherDisplay:10.37,2013-07-06 13:35:00,
2013-07-06 08:40:00,82.0,64.8,29.94,SSE,148,1.2,1.2,56,0.00,CLR,,0.00,WeatherDisplay:10.37,2013-07-06 13:40:00,
2013-07-06 08:45:00,82.5,64.7,29.94,SSE,157,1.2,0.0,55,0.00,CLR,,0.00,WeatherDisplay:10.37,2013-07-06 13:45:00,
2013-07-06 08:50:00,83.2,65.4,29.94,SSE,148,0.0,0.0,55,0.00,CLR,,0.00,WeatherDisplay:10.37,2013-07-06 13:50:00,
2013-07-06 08:55:00,84.1,65.1,29.94,SSE,162,0.0,0.0,53,0.00,CLR,,0.00,WeatherDisplay:10.37,2013-07-06 13:55:00,
2013-07-06 09:00:00,84.8,65.2,29.94,South,169,2.3,2.3,52,0.00,CLR,,0.00,WeatherDisplay:10.37,2013-07-06 14:00:00,
2013-07-06 09:05:00,84.9,65.9,29.94,SW,229,2.3,2.3,53,0.00,CLR,,0.00,WeatherDisplay:10.37,2013-07-06 14:05:00,
2013-07-06 09:10:00,84.9,64.2,29.94,SW,229,4.6,4.6,50,0.00,CLR,,0.00,WeatherDisplay:10.37,2013-07-06 14:10:00,
2013-07-06 09:15:00,85.2,64.5,29.94,South,180,2.3,2.3,50,0.00,CLR,,0.00,WeatherDisplay:10.37,2013-07-06 14:15:00,
2013-07-06 09:20:00,86.0,64.6,29.93,SW,225,4.0,4.0,49,0.00,CLR,,0.00,WeatherDisplay:10.37,2013-07-06 14:20:00,
2013-07-06 09:25:00,86.2,64.2,29.93,SW,221,3.5,3.5,48,0.00,CLR,,0.00,WeatherDisplay:10.37,2013-07-06 14:25:00,
2013-07-06 09:30:00,86.5,63.3,29.93,South,188,4.6,4.6,46,0.00,CLR,,0.00,WeatherDisplay:10.37,2013-07-06 14:30:00,
2013-07-06 09:35:00,86.7,63.4,29.93,SSE,164,6.9,6.9,46,0.00,CLR,,0.00,WeatherDisplay:10.37,2013-07-06 14:35:00,
2013-07-06 09:40:00,86.9,63.0,29.93,South,190,9.2,9.2,45,0.00,CLR,,0.00,WeatherDisplay:10.37,2013-07-06 14:40:00,
2013-07-06 09:45:00,87.3,64.0,29.93,SE,134,4.6,4.6,46,0.00,CLR,,0.00,WeatherDisplay:10.37,2013-07-06 14:45:00,
2013-07-06 09:50:00,87.8,63.2,29.93,South,176,11.5,11.5,44,0.00,CLR,,0.00,WeatherDisplay:10.37,2013-07-06 14:50:00,
2013-07-06 09:55:00,88.0,62.7,29.93,SSE,167,6.9,6.9,43,0.00,CLR,,0.00,WeatherDisplay:10.37,2013-07-06 14:55:00,
2013-07-06 10:00:00,88.0,62.0,29.93,South,175,10.4,10.4,42,0.00,CLR,,0.00,WeatherDisplay:10.37,2013-07-06 15:00:00,
2013-07-06 10:05:00,88.0,63.4,29.93,WSW,238,10.4,10.4,44,0.00,CLR,,0.00,WeatherDisplay:10.37,2013-07-06 15:05:00,
2013-07-06 10:10:00,88.1,62.8,29.93,SW,224,8.1,8.1,43,0.00,CLR,,0.00,WeatherDisplay:10.37,2013-07-06 15:10:00,
2013-07-06 10:15:00,88.3,62.3,29.92,South,187,6.9,6.9,42,0.00,CLR,,0.00,WeatherDisplay:10.37,2013-07-06 15:15:00,
2013-07-06 10:20:00,88.7,62.7,29.93,ESE,117,5.8,5.8,42,0.00,CLR,,0.00,WeatherDisplay:10.37,2013-07-06 15:20:00,
2013-07-06 10:25:00,89.0,62.2,29.93,SSW,198,9.2,9.2,41,0.00,CLR,,0.00,WeatherDisplay:10.37,2013-07-06 15:25:00,
2013-07-06 10:30:00,89.3,62.5,29.93,SSW,198,5.8,5.8,41,0.00,CLR,,0.00,WeatherDisplay:10.37,2013-07-06 15:30:00,
2013-07-06 10:35:00,89.5,62.0,29.93,South,181,8.1,8.1,40,0.00,CLR,,0.00,WeatherDisplay:10.37,2013-07-06 15:35:00,
2013-07-06 10:40:00,89.7,62.2,29.93,SW,226,7.0,7.0,40,0.00,CLR,,0.00,WeatherDisplay:10.37,2013-07-06 15:40:00,
2013-07-06 10:45:00,90.0,62.4,29.93,SSW,205,4.6,4.6,40,0.00,CLR,,0.00,WeatherDisplay:10.37,2013-07-06 15:45:00,
2013-07-06 10:50:00,90.4,62.8,29.93,SE,136,9.2,9.2,40,0.00,CLR,,0.00,WeatherDisplay:10.37,2013-07-06 15:50:00,
2013-07-06 10:55:00,90.3,62.0,29.93,SSW,212,9.2,9.2,39,0.00,CLR,,0.00,WeatherDisplay:10.37,2013-07-06 15:55:00,
2013-07-06 11:00:00,90.6,61.5,29.93,SSE,156,5.8,5.8,38,0.00,CLR,,0.00,WeatherDisplay:10.37,2013-07-06 16:00:00,
2013-07-06 11:05:00,90.8,62.4,29.93,SW,221,4.0,4.0,39,0.00,CLR,,0.00,WeatherDisplay:10.37,2013-07-06 16:05:00,
2013-07-06 11:13:00,90.9,61.8,29.93,WSW,252,6.9,6.9,38,0.00,CLR,,0.00,WeatherDisplay:10.37,2013-07-06 16:13:00,
2013-07-06 11:20:00,91.1,62.0,29.93,South,187,8.1,8.1,38,0.00,CLR,,0.00,WeatherDisplay:10.37,2013-07-06 16:20:00,
2013-07-06 11:26:00,91.3,61.4,29.92,South,175,8.1,8.1,37,0.00,CLR,,0.00,WeatherDisplay:10.37,2013-07-06 16:26:00,
2013-07-06 11:32:00,91.7,61.7,29.92,ESE,111,6.9,6.9,37,0.00,CLR,,0.00,WeatherDisplay:10.37,2013-07-06 16:32:00,
2013-07-06 11:37:00,92.1,60.5,29.92,South,183,8.1,8.1,35,0.00,CLR,,0.00,WeatherDisplay:10.37,2013-07-06 16:37:00,
2013-07-06 11:42:00,92.0,61.2,29.92,SW,218,6.9,6.9,36,0.00,CLR,,0.00,WeatherDisplay:10.37,2013-07-06 16:42:00,
2013-07-06 11:48:00,92.4,61.6,29.92,SSW,208,6.9,6.9,36,0.00,CLR,,0.00,WeatherDisplay:10.37,2013-07-06 16:48:00,
2013-07-06 11:54:00,92.6,61.0,29.92,SSE,153,3.5,3.5,35,0.00,CLR,,0.00,WeatherDisplay:10.37,2013-07-06 16:54:00,
2013-07-06 11:59:00,92.6,60.1,29.92,SSE,162,9.2,9.2,34,0.00,CLR,,0.00,WeatherDisplay:10.37,2013-07-06 16:59:00,
2013-07-06 12:05:00,93.1,61.4,29.92,SW,235,6.9,6.9,35,0.00,CLR,,0.00,WeatherDisplay:10.37,2013-07-06 17:05:00,
2013-07-06 12:11:00,93.0,60.5,29.92,SSW,201,4.6,4.6,34,0.00,CLR,,0.00,WeatherDisplay:10.37,2013-07-06 17:11:00,
2013-07-06 12:16:00,93.6,61.0,29.92,SSW,212,8.1,8.1,34,0.00,CLR,,0.00,WeatherDisplay:10.37,2013-07-06 17:16:00,
2013-07-06 12:22:00,94.0,61.4,29.92,NE,54,3.0,3.0,34,0.00,CLR,,0.00,WeatherDisplay:10.37,2013-07-06 17:22:00,
2013-07-06 12:27:00,94.0,61.4,29.92,SSE,160,4.6,4.6,34,0.00,CLR,,0.00,WeatherDisplay:10.37,2013-07-06 17:27:00,
2013-07-06 12:33:00,94.4,60.0,29.92,East,100,6.9,6.9,32,0.00,CLR,,0.00,WeatherDisplay:10.37,2013-07-06 17:33:00,
2013-07-06 12:39:00,94.2,59.8,29.91,East,82,6.9,6.9,32,0.00,CLR,,0.00,WeatherDisplay:10.37,2013-07-06 17:39:00,
2013-07-06 12:44:00,94.7,60.3,29.91,ESE,123,6.9,6.9,32,0.00,CLR,,0.00,WeatherDisplay:10.37,2013-07-06 17:44:00,
2013-07-06 12:50:00,94.7,60.3,29.91,South,181,8.1,8.1,32,0.00,CLR,,0.00,WeatherDisplay:10.37,2013-07-06 17:50:00,
2013-07-06 12:57:00,95.0,59.6,29.91,SE,141,9.2,9.2,31,0.00,CLR,,0.00,WeatherDisplay:10.37,2013-07-06 17:57:00,
2013-07-06 13:02:00,95.2,58.9,29.91,SE,129,8.1,8.1,30,0.00,CLR,,0.00,WeatherDisplay:10.37,2013-07-06 18:02:00,
2013-07-06 13:07:00,95.2,58.9,29.91,SW,232,4.6,4.6,30,0.00,CLR,,0.00,WeatherDisplay:10.37,2013-07-06 18:07:00,
2013-07-06 13:12:00,95.2,59.8,29.90,SE,146,5.8,5.8,31,0.00,CLR,,0.00,WeatherDisplay:10.37,2013-07-06 18:12:00,
2013-07-06 13:17:00,95.5,60.1,29.91,SW,218,5.8,5.8,31,0.00,CLR,,0.00,WeatherDisplay:10.37,2013-07-06 18:17:00,
2013-07-06 13:24:00,95.6,58.3,29.90,SE,135,5.0,5.0,29,0.00,CLR,,0.00,WeatherDisplay:10.37,2013-07-06 18:24:00,
2013-07-06 13:29:00,95.8,57.5,29.90,SSE,159,10.4,10.4,28,0.00,CLR,,0.00,WeatherDisplay:10.37,2013-07-06 18:29:00,
2013-07-06 13:34:00,96.2,59.7,29.90,SE,137,8.1,8.1,30,0.00,CLR,,0.00,WeatherDisplay:10.37,2013-07-06 18:34:00,
2013-07-06 13:39:00,96.2,58.8,29.90,SE,145,6.0,6.0,29,0.00,CLR,,0.00,WeatherDisplay:10.37,2013-07-06 18:39:00,
2013-07-06 13:44:00,96.0,56.6,29.90,SE,145,8.1,8.1,27,0.00,CLR,,0.00,WeatherDisplay:10.37,2013-07-06 18:44:00,
2013-07-06 13:49:00,96.2,56.8,29.90,SE,145,5.8,5.8,27,0.00,CLR,,0.00,WeatherDisplay:10.37,2013-07-06 18:49:00,
2013-07-06 13:54:00,96.1,57.7,29.89,SE,146,8.1,8.1,28,0.00,CLR,,0.00,WeatherDisplay:10.37,2013-07-06 18:54:00,
2013-07-06 13:59:00,96.4,58.0,29.89,ESE,115,9.2,9.2,28,0.00,CLR,,0.00,WeatherDisplay:10.37,2013-07-06 18:59:00,
2013-07-06 14:07:00,96.3,55.8,29.89,WSW,246,5.8,5.8,26,0.00,CLR,,0.00,WeatherDisplay:10.37,2013-07-06 19:07:00,
2013-07-06 14:17:00,96.3,56.9,29.88,SE,126,11.5,11.5,27,0.00,CLR,,0.00,WeatherDisplay:10.37,2013-07-06 19:17:00,
2013-07-06 14:24:00,96.4,55.9,29.88,SSE,162,4.6,4.6,26,0.00,CLR,,0.00,WeatherDisplay:10.37,2013-07-06 19:24:00,
2013-07-06 14:30:00,96.7,56.2,29.88,SE,144,5.8,5.8,26,0.00,CLR,,0.00,WeatherDisplay:10.37,2013-07-06 19:30:00,
2013-07-06 14:35:00,96.8,52.9,29.88,South,186,10.4,10.4,23,0.00,CLR,,0.00,WeatherDisplay:10.37,2013-07-06 19:35:00,
2013-07-06 14:40:00,96.4,54.8,29.88,ESE,120,11.5,11.5,25,0.00,CLR,,0.00,WeatherDisplay:10.37,2013-07-06 19:40:00,
2013-07-06 14:45:00,96.6,57.1,29.88,SE,145,8.1,8.1,27,0.00,CLR,,0.00,WeatherDisplay:10.37,2013-07-06 19:45:00,
2013-07-06 14:50:00,96.3,56.9,29.87,SE,128,5.8,5.8,27,0.00,CLR,,0.00,WeatherDisplay:10.37,2013-07-06 19:50:00,
2013-07-06 14:55:00,96.2,57.8,29.88,SE,137,9.2,9.2,28,0.00,CLR,,0.00,WeatherDisplay:10.37,2013-07-06 19:55:00,
2013-07-06 15:01:00,95.9,55.5,29.87,SE,146,11.5,11.5,26,0.00,CLR,,0.00,WeatherDisplay:10.37,2013-07-06 20:01:00,
2013-07-06 15:09:00,95.2,57.0,29.87,East,100,6.9,6.9,28,0.00,CLR,,0.00,WeatherDisplay:10.37,2013-07-06 20:09:00,
2013-07-06 15:14:00,95.5,58.2,29.88,SE,143,6.0,6.0,29,0.00,CLR,,0.00,WeatherDisplay:10.37,2013-07-06 20:14:00,
2013-07-06 15:19:00,96.1,57.7,29.87,SE,146,7.0,7.0,28,0.00,CLR,,0.00,WeatherDisplay:10.37,2013-07-06 20:19:00,
2013-07-06 15:25:00,96.5,59.0,29.87,SE,141,5.8,5.8,29,0.00,CLR,,0.00,WeatherDisplay:10.37,2013-07-06 20:25:00,
2013-07-06 15:30:00,97.0,56.4,29.87,SW,235,6.9,6.9,26,0.00,CLR,,0.00,WeatherDisplay:10.37,2013-07-06 20:30:00,
2013-07-06 15:35:00,97.2,55.5,29.87,SW,233,6.9,6.9,25,0.00,CLR,,0.00,WeatherDisplay:10.37,2013-07-06 20:35:00,
2013-07-06 15:41:00,97.9,58.2,29.87,SSE,153,3.5,3.5,27,0.00,CLR,,0.00,WeatherDisplay:10.37,2013-07-06 20:41:00,
2013-07-06 15:47:00,97.9,57.2,29.86,SSE,167,3.5,3.5,26,0.00,CLR,,0.00,WeatherDisplay:10.37,2013-07-06 20:47:00,
2013-07-06 15:53:00,98.1,57.4,29.86,SE,126,4.6,4.6,26,0.00,CLR,,0.00,WeatherDisplay:10.37,2013-07-06 20:53:00,
2013-07-06 15:59:00,98.1,57.4,29.86,East,91,4.6,4.6,26,0.00,CLR,,0.00,WeatherDisplay:10.37,2013-07-06 20:59:00,
2013-07-06 16:05:00,98.0,58.3,29.86,SE,142,5.8,5.8,27,0.00,SCT,,0.00,WeatherDisplay:10.37,2013-07-06 21:05:00,
2013-07-06 16:11:00,98.4,56.5,29.86,ENE,62,4.6,4.6,25,0.00,SCT,,0.00,WeatherDisplay:10.37,2013-07-06 21:11:00,
2013-07-06 16:16:00,97.9,55.0,29.86,ESE,109,3.5,3.5,24,0.00,SCT,,0.00,WeatherDisplay:10.37,2013-07-06 21:16:00,
2013-07-06 16:21:00,97.0,55.3,29.85,SSW,205,6.9,6.9,25,0.00,SCT,,0.00,WeatherDisplay:10.37,2013-07-06 21:21:00,
2013-07-06 16:27:00,97.1,56.5,29.85,SSW,193,4.6,4.6,26,0.00,SCT,,0.00,WeatherDisplay:10.37,2013-07-06 21:27:00,
2013-07-06 16:32:00,97.3,55.6,29.85,ESE,123,10.4,10.4,25,0.00,SCT,,0.00,WeatherDisplay:10.37,2013-07-06 21:32:00,
2013-07-06 16:37:00,97.4,56.8,29.85,SE,145,3.0,3.0,26,0.00,SCT,,0.00,WeatherDisplay:10.37,2013-07-06 21:37:00,
2013-07-06 16:43:00,97.5,55.8,29.85,NNW,327,10.4,10.4,25,0.00,SCT,,0.00,WeatherDisplay:10.37,2013-07-06 21:43:00,
2013-07-06 16:48:00,97.4,55.7,29.85,SSE,154,9.2,9.2,25,0.00,SCT,,0.00,WeatherDisplay:10.37,2013-07-06 21:48:00,
2013-07-06 16:53:00,97.1,55.4,29.84,East,85,4.0,4.0,25,0.00,SCT,,0.00,WeatherDisplay:10.37,2013-07-06 21:53:00,
2013-07-06 16:58:00,96.5,54.9,29.84,ENE,63,8.1,8.1,25,0.00,SCT,,0.00,WeatherDisplay:10.37,2013-07-06 21:58:00,
2013-07-06 17:03:00,96.8,56.3,29.84,SE,144,5.0,5.0,26,0.00,SCT,,0.00,WeatherDisplay:10.37,2013-07-06 22:03:00,
2013-07-06 17:08:00,97.4,55.7,29.84,East,98,4.6,4.6,25,0.00,SCT,,0.00,WeatherDisplay:10.37,2013-07-06 22:08:00,
2013-07-06 17:13:00,97.6,55.9,29.84,East,82,2.0,2.0,25,0.00,SCT,,0.00,WeatherDisplay:10.37,2013-07-06 22:13:00,
2013-07-06 17:18:00,97.7,55.9,29.83,ESE,117,10.0,10.0,25,0.00,SCT,,0.00,WeatherDisplay:10.37,2013-07-06 22:18:00,
2013-07-06 17:24:00,97.8,56.0,29.84,NNE,30,5.8,5.8,25,0.00,SCT,,0.00,WeatherDisplay:10.37,2013-07-06 22:24:00,
2013-07-06 17:29:00,97.6,55.9,29.83,SSE,150,6.9,6.9,25,0.00,SCT,,0.00,WeatherDisplay:10.37,2013-07-06 22:29:00,
2013-07-06 17:34:00,97.5,55.8,29.83,East,89,4.6,4.6,25,0.00,SCT,,0.00,WeatherDisplay:10.37,2013-07-06 22:34:00,
2013-07-06 17:43:00,97.8,56.0,29.83,ESE,122,10.4,10.4,25,0.00,SCT,,0.00,WeatherDisplay:10.37,2013-07-06 22:43:00,
2013-07-06 17:48:00,97.5,55.8,29.83,NE,46,11.5,11.5,25,0.00,SCT,,0.00,WeatherDisplay:10.37,2013-07-06 22:48:00,
2013-07-06 17:55:00,97.0,55.3,29.83,ESE,106,3.5,3.5,25,0.00,SCT,,0.00,WeatherDisplay:10.37,2013-07-06 22:55:00,
2013-07-06 18:01:00,97.3,55.6,29.83,SW,224,5.8,5.8,25,0.00,SCT,,0.00,WeatherDisplay:10.37,2013-07-06 23:01:00,
2013-07-06 18:06:00,97.7,54.8,29.83,SSE,150,9.2,9.2,24,0.00,CLR,,0.00,WeatherDisplay:10.37,2013-07-06 23:06:00,
2013-07-06 18:12:00,97.2,54.4,29.83,SSE,153,6.9,6.9,24,0.00,CLR,,0.00,WeatherDisplay:10.37,2013-07-06 23:12:00,
2013-07-06 18:18:00,97.2,55.5,29.82,NNE,19,3.5,3.5,25,0.00,CLR,,0.00,WeatherDisplay:10.37,2013-07-06 23:18:00,
2013-07-06 18:24:00,96.9,54.1,29.83,SSW,197,6.9,6.9,24,0.00,CLR,,0.00,WeatherDisplay:10.37,2013-07-06 23:24:00,
2013-07-06 18:30:00,96.6,53.9,29.83,SE,146,8.1,8.1,24,0.00,CLR,,0.00,WeatherDisplay:10.37,2013-07-06 23:30:00,
2013-07-06 18:35:00,96.3,54.8,29.83,SE,143,8.0,8.0,25,0.00,CLR,,0.00,WeatherDisplay:10.37,2013-07-06 23:35:00,
2013-07-06 18:40:00,95.8,54.3,29.83,SSE,148,4.6,4.6,25,0.00,CLR,,0.00,WeatherDisplay:10.37,2013-07-06 23:40:00,
2013-07-06 18:48:00,95.8,55.4,29.83,ESE,105,1.2,1.2,26,0.00,CLR,,0.00,WeatherDisplay:10.37,2013-07-06 23:48:00,
2013-07-06 18:56:00,95.8,54.3,29.83,ESE,117,5.0,5.0,25,0.00,CLR,,0.00,WeatherDisplay:10.37,2013-07-06 23:56:00,
2013-07-06 19:03:00,95.5,55.2,29.83,ENE,75,4.6,4.6,26,0.00,CLR,,0.00,WeatherDisplay:10.37,2013-07-07 00:03:00,
2013-07-06 19:08:00,95.3,53.9,29.83,SSE,165,3.5,3.5,25,0.00,CLR,,0.00,WeatherDisplay:10.37,2013-07-07 00:08:00,
2013-07-06 19:13:00,95.1,54.8,29.83,SE,129,5.0,5.0,26,0.00,CLR,,0.00,WeatherDisplay:10.37,2013-07-07 00:13:00,
2013-07-06 19:18:00,95.0,55.8,29.83,ESE,121,2.3,2.3,27,0.00,CLR,,0.00,WeatherDisplay:10.37,2013-07-07 00:18:00,
2013-07-06 19:23:00,94.9,54.7,29.83,ESE,114,5.0,5.0,26,0.00,CLR,,0.00,WeatherDisplay:10.37,2013-07-07 00:23:00,
2013-07-06 19:28:00,94.8,54.6,29.83,SE,129,4.6,4.6,26,0.00,CLR,,0.00,WeatherDisplay:10.37,2013-07-07 00:28:00,
2013-07-06 19:33:00,94.7,55.5,29.83,East,100,1.2,1.2,27,0.00,CLR,,0.00,WeatherDisplay:10.37,2013-07-07 00:33:00,
2013-07-06 19:38:00,94.7,55.5,29.83,SSE,148,5.8,5.8,27,0.00,CLR,,0.00,WeatherDisplay:10.37,2013-07-07 00:38:00,
2013-07-06 19:43:00,94.5,55.4,29.84,ESE,115,8.1,8.1,27,0.00,CLR,,0.00,WeatherDisplay:10.37,2013-07-07 00:43:00,
2013-07-06 19:49:00,94.2,55.1,29.84,SSE,152,3.5,3.5,27,0.00,CLR,,0.00,WeatherDisplay:10.37,2013-07-07 00:49:00,
2013-07-06 19:54:00,94.1,56.0,29.84,ESE,117,3.5,3.5,28,0.00,CLR,,0.00,WeatherDisplay:10.37,2013-07-07 00:54:00,
2013-07-06 19:59:00,93.9,56.8,29.84,SSE,153,5.0,5.0,29,0.00,CLR,,0.00,WeatherDisplay:10.37,2013-07-07 00:59:00,
2013-07-06 20:05:00,93.5,55.5,29.84,South,191,5.8,5.8,28,0.00,CLR,,0.00,WeatherDisplay:10.37,2013-07-07 01:05:00,
2013-07-06 20:11:00,93.2,55.2,29.84,ESE,113,3.5,3.5,28,0.00,CLR,,0.00,WeatherDisplay:10.37,2013-07-07 01:11:00,
2013-07-06 20:17:00,93.0,56.0,29.85,SSE,162,3.5,3.5,29,0.00,CLR,,0.00,WeatherDisplay:10.37,2013-07-07 01:17:00,
2013-07-06 20:23:00,92.6,55.7,29.85,NE,56,6.0,6.0,29,0.00,CLR,,0.00,WeatherDisplay:10.37,2013-07-07 01:23:00,
2013-07-06 20:29:00,92.0,56.1,29.85,SSE,151,3.5,3.5,30,0.00,CLR,,0.00,WeatherDisplay:10.37,2013-07-07 01:29:00,
2013-07-06 20:34:00,91.5,55.7,29.85,SSE,148,3.5,3.5,30,0.00,CLR,,0.00,WeatherDisplay:10.37,2013-07-07 01:34:00,
2013-07-06 20:39:00,91.1,55.3,29.85,SE,132,3.5,3.5,30,0.00,CLR,,0.00,WeatherDisplay:10.37,2013-07-07 01:39:00,
2013-07-06 20:44:00,90.8,55.1,29.85,SE,143,5.8,5.8,30,0.00,CLR,,0.00,WeatherDisplay:10.37,2013-07-07 01:44:00,
2013-07-06 20:49:00,90.5,55.7,29.85,SSW,193,1.2,1.2,31,0.00,CLR,,0.00,WeatherDisplay:10.37,2013-07-07 01:49:00,
2013-07-06 20:55:00,90.0,56.2,29.86,East,91,3.5,3.5,32,0.00,CLR,,0.00,WeatherDisplay:10.37,2013-07-07 01:55:00,
2013-07-06 21:02:00,89.6,56.7,29.86,SE,146,0.0,0.0,33,0.00,CLR,,0.00,WeatherDisplay:10.37,2013-07-07 02:02:00,
2013-07-06 21:08:00,88.9,56.9,29.86,ESE,120,0.0,0.0,34,0.00,CLR,,0.00,WeatherDisplay:10.37,2013-07-07 02:08:00,
2013-07-06 21:14:00,88.3,57.2,29.86,ESE,105,0.0,0.0,35,0.00,CLR,,0.00,WeatherDisplay:10.37,2013-07-07 02:14:00,
2013-07-06 21:20:00,87.8,56.7,29.86,ESE,111,1.2,0.0,35,0.00,CLR,,0.00,WeatherDisplay:10.37,2013-07-07 02:20:00,
2013-07-06 21:25:00,87.5,57.3,29.87,ESE,113,0.0,0.0,36,0.00,CLR,,0.00,WeatherDisplay:10.37,2013-07-07 02:25:00,
2013-07-06 21:30:00,87.1,56.9,29.87,SE,128,1.0,0.0,36,0.00,CLR,,0.00,WeatherDisplay:10.37,2013-07-07 02:30:00,
2013-07-06 21:35:00,86.8,57.4,29.87,SSE,148,3.5,3.5,37,0.00,CLR,,0.00,WeatherDisplay:10.37,2013-07-07 02:35:00,
2013-07-06 21:40:00,86.6,57.2,29.87,SE,133,1.2,1.2,37,0.00,CLR,,0.00,WeatherDisplay:10.37,2013-07-07 02:40:00,
2013-07-06 21:45:00,86.4,57.0,29.88,East,97,1.2,0.0,37,0.00,CLR,,0.00,WeatherDisplay:10.37,2013-07-07 02:45:00,
2013-07-06 21:50:00,86.2,57.6,29.88,SE,143,0.0,0.0,38,0.00,CLR,,0.00,WeatherDisplay:10.37,2013-07-07 02:50:00,
2013-07-06 21:55:00,85.9,57.3,29.88,East,92,0.0,0.2,38,0.00,CLR,,0.00,WeatherDisplay:10.37,2013-07-07 02:55:00,
2013-07-06 22:01:00,85.6,57.8,29.88,SSE,148,1.0,1.0,39,0.00,CLR,,0.00,WeatherDisplay:10.37,2013-07-07 03:01:00,
2013-07-06 22:07:00,85.2,57.4,29.89,SE,138,0.0,0.0,39,0.00,CLR,,0.00,WeatherDisplay:10.37,2013-07-07 03:07:00,
2013-07-06 22:14:00,84.7,57.7,29.89,SE,138,0.0,0.1,40,0.00,CLR,,0.00,WeatherDisplay:10.37,2013-07-07 03:14:00,
2013-07-06 22:19:00,84.4,58.1,29.89,SE,138,1.2,0.0,41,0.00,CLR,,0.00,WeatherDisplay:10.37,2013-07-07 03:19:00,
2013-07-06 22:26:00,84.1,57.9,29.90,SSE,151,0.0,0.0,41,0.00,CLR,,0.00,WeatherDisplay:10.37,2013-07-07 03:26:00,
2013-07-06 22:33:00,84.0,57.1,29.90,South,169,0.0,0.0,40,0.00,CLR,,0.00,WeatherDisplay:10.37,2013-07-07 03:33:00,
2013-07-06 22:41:00,83.7,57.5,29.90,ESE,112,0.0,0.0,41,0.00,CLR,,0.00,WeatherDisplay:10.37,2013-07-07 03:41:00,
2013-07-06 22:48:00,83.4,57.2,29.91,ESE,112,0.0,0.0,41,0.00,CLR,,0.00,WeatherDisplay:10.37,2013-07-07 03:48:00,
2013-07-06 22:58:00,82.9,57.5,29.91,ENE,77,0.0,0.0,42,0.00,CLR,,0.00,WeatherDisplay:10.37,2013-07-07 03:58:00,
2013-07-06 23:01:00,82.9,58.1,29.91,ENE,78,0.0,0.0,43,0.00,CLR,,0.00,WeatherDisplay:10.37,2013-07-07 04:01:00,
2013-07-06 23:02:00,83.0,58.2,29.91,ENE,78,0.0,0.0,43,0.00,CLR,,0.00,WeatherDisplay:10.37,2013-07-07 04:02:00,
2013-07-06 23:07:00,82.8,57.4,29.91,ENE,64,1.2,1.2,42,0.00,CLR,,0.00,WeatherDisplay:10.37,2013-07-07 04:07:00,
2013-07-06 23:08:00,82.8,57.4,29.91,ESE,110,1.2,1.2,42,0.00,CLR,,0.00,WeatherDisplay:10.37,2013-07-07 04:08:00,
2013-07-06 23:13:00,82.8,56.7,29.91,ESE,117,0.0,0.0,41,0.00,CLR,,0.00,WeatherDisplay:10.37,2013-07-07 04:13:00,
2013-07-06 23:17:00,82.8,57.4,29.92,SE,136,0.0,0.0,42,0.00,CLR,,0.00,WeatherDisplay:10.37,2013-07-07 04:17:00,
2013-07-06 23:22:00,82.5,57.1,29.92,SE,125,0.0,0.0,42,0.00,CLR,,0.00,WeatherDisplay:10.37,2013-07-07 04:22:00,
2013-07-06 23:27:00,82.3,57.6,29.92,ESE,113,1.2,0.0,43,0.00,CLR,,0.00,WeatherDisplay:10.37,2013-07-07 04:27:00,
2013-07-06 23:32:00,82.2,57.5,29.92,SE,129,0.0,0.0,43,0.00,CLR,,0.00,WeatherDisplay:10.37,2013-07-07 04:32:00,
2013-07-06 23:37:00,82.0,57.9,29.92,SE,129,0.0,0.0,44,0.00,CLR,,0.00,WeatherDisplay:10.37,2013-07-07 04:37:00,
2013-07-06 23:42:00,81.8,57.8,29.92,East,101,1.2,0.0,44,0.00,CLR,,0.00,WeatherDisplay:10.37,2013-07-07 04:42:00,
2013-07-06 23:47:00,81.7,57.7,29.92,SE,143,0.0,0.0,44,0.00,CLR,,0.00,WeatherDisplay:10.37,2013-07-07 04:47:00,
2013-07-06 23:52:00,81.4,58.0,29.92,SSE,154,0.0,0.0,45,0.00,CLR,,0.00,WeatherDisplay:10.37,2013-07-07 04:52:00,
2013-07-06 23:57:00,81.2,57.8,29.92,SE,125,0.0,0.0,45,0.00,CLR,,0.00,WeatherDisplay:10.37,2013-07-07 04:57:00,